sat.trackr.live / text

‹ back to catalog

ONEWEB-0452

NORAD 51644 · 2022-012Y

PAYLOAD ACTIVE UNKNOWN

§ Identity

Operator
Country
UK
Launch date
2022-02-10
Launch site
FRGUI
Launch vehicle
Mass (kg)
RCS (m²)

Purposes: comms

External: N2YO · Heavens-Above · Gunter

§ Orbital elements

Epoch: 2026-05-25T02:56:29.249664Z

Period
109.29 min
Inclination
87.9154°
Eccentricity
0.0002119
Mean motion
13.17649354 rev/d
Perigee alt
1,192.1 km
Apogee alt
1,195.3 km
Semi-major
7,571.8 km
B*
1.2697e-5
RAAN
10.4667°
Arg perigee
80.4517°
Mean anomaly
279.6854°
Rev number
21,063

§ Raw data

ONEWEB-04521 51644U 22012Y   26145.12256076  .00000018  00000+0  12697-4 0  99912 51644  87.9154  10.4667 0002119  80.4517 279.6854 13.17649354210634

JSON: /api/v1/satellites/51644 · /tle

For live sub-satellite position, see the globe view (requires WebGL).

§ Visibility from observer

Set your observer location to see the next 7 days of passes ≥ 10°. The values pass through the URL so the page stays shareable.

No JS? Fill the form by hand. The geolocation button needs JavaScript.